Location: Friaudour
(46.0460°N, 1.2873°E)
Time: 10:35:00
(UTC+00:00)

Gbstr 26 Del rocket - Pass Details

Date: 14 July 2020
Orbit: 492 x 1264 km, 51.8° (Epoch: 05 August)

Event Time Altitude Azimuth Distance (km) Brightness Sun altitude
Rises 01:37:03 0° 296° (WNW) 2,637 6.3 -18.9°
Reaches altitude 10° 01:39:09 10° 301° (WNW) 1,800 5.5 -18.7°
Maximum altitude 01:43:07 57° 21° (NNE) 702 3.6 -18.5°
Drops below altitude 10° 01:47:50 10° 100° (E) 2,128 6.0 -18.1°
Sets 01:50:30 0° 105° (ESE) 3,174 6.9 -17.9°
